OneWeb SL0083

operational
NORAD ID: 45435 Int'l Des: 2020-020 Owner: ONEWEB Country: UK Constellation: oneweb
LEOCIRCULARPOLARONEWEB_TYPE

About OneWeb SL0083

Description loading...

Live Position

Loading 3D Globe...

Upcoming Passes

Altitude History

Altitude vs Time

uPlot chart will show altitude changes over time

Two-Line Element Set

1 45435U 20020M 26034.53664741 -.00000095 00000-0 -30475-3 0 9994
2 45435 87.8824 47.6473 0001793 92.6857 267.4477 13.11419301285150
Epoch: Feb 3, 2026 • Age: 13 hours

Current Status

Altitude 1230.1 km
Velocity 7.25 km/s
Sub-Earth Point 85.29°N, 92.17°W
Launch Date Mar 21, 2020
Age 5.8 years
Type internet

Technical Details

Classification Payload
Mass 148.00 kg
Dry Mass 140.00 kg
Total Mass 148.00 kg
Length 1.30 m
Diameter 1.00 m
Span 5.00 m
Shape Trapezoid+2 pan
Manufacturer ONEWUS
Bus Type ARROW
Phase Status In Orbit
Owner/State ONEWEB/UK

Large Constellations

Loading constellations...